QPF
0.00 0.00 0.00 0.00 0.00 0.00 0.00 0.00 0.00 0.00 0.00 0.00 0.00 0.00 0.00 0.00 0.00 0.00 0.00 0.00 0.00 0.00 0.00 0.00 0.00 0.00 0.00 0.00 0.00 0.00 0.00 0.00
0.00 0.00 0.00 0.00 0.00 0.00 0.00 0.00 0.00 0.00 0.00 0.00 0.00 0.00 0.00 0.00 0.00 0.00 0.00 0.00 0.00 0.00 0.00 0.00 0.00 0.00 0.00 0.00 0.00 0.00 0.00 0.00
0.00 0.00 0.00 0.00 0.00 0.00 0.00 0.00 0.00 0.00 0.00 0.00 0.00 0.00 0.00 0.00 0.00 0.00 0.00 0.00 0.00 0.00 0.00 0.00 0.00 0.00 0.00 0.00 0.00 0.00 0.00 0.00
0.00 0.00 0.00 0.00 0.00 0.00 0.00 0.00 0.00 0.00 0.00 0.00 0.00 0.00 0.00 0.00 0.00 0.00 0.00 0.00 0.01 0.00 0.00 0.00 0.00 0.00 0.00 0.00 0.00 0.00 0.00 0.00
0.00 0.00 0.00 0.00 0.00 0.00 0.00 0.00 0.00 0.00 0.00 0.00 0.00 0.00 0.00 0.01 0.01 0.00 0.00 0.01 0.00 0.01 0.00 0.00 0.00 0.00 0.00 0.00 0.00 0.00 0.00 0.00
0.00 0.00 0.00 0.00 0.00 0.00 0.00 0.00 0.00 0.00 0.00 0.00 0.00 0.01 0.01 0.06 0.06 0.02 0.00 0.01 0.02 0.02 0.01 0.00 0.00 0.00 0.00 0.00 0.01 0.00 0.00 0.00
0.00 0.00 0.00 0.00 0.00 0.00 0.00 0.00 0.00 0.00 0.00 0.00 0.01 0.02 0.03 0.08 0.10 0.11 0.05 0.02 0.03 0.03 0.02 0.00 0.00 0.01 0.01 0.02 0.03 0.01 0.00 0.00
0.00 0.00 0.00 0.00 0.00 0.00 0.00 0.01 0.00 0.01 0.00 0.00 0.01 0.04 0.06 0.07 0.06 0.06 0.11 0.04 0.02 0.04 0.02 0.01 0.00 0.01 0.01 0.01 0.02 0.02 0.00 0.00
0.00 0.00 0.00 0.00 0.00 0.00 0.00 0.00 0.01 0.01 0.02 0.01 0.01 0.03 0.07 0.06 0.05 0.01 0.02 0.04 0.04 0.05 0.04 0.02 0.03 0.02 0.02 0.01 0.02 0.04 0.04 0.01
0.00 0.00 0.00 0.00 0.00 0.01 0.01 0.01 0.01 0.02 0.03 0.08 0.04 0.02 0.05 0.07 0.06 0.01 0.02 0.04 0.06 0.06 0.07 0.19 0.36 0.29 0.20 0.12 0.03 0.04 0.05 0.04
0.00 0.00 0.00 0.00 0.01 0.02 0.02 0.02 0.02 0.03 0.04 0.07 0.11 0.11 0.05 0.06 0.03 0.03 0.02 0.05 0.07 0.09 0.14 0.20 0.25 0.21 0.12 0.04 0.02 0.05 0.07 0.06
0.00 0.00 0.00 0.00 0.00 0.01 0.03 0.03 0.02 0.01 0.03 0.03 0.04 0.08 0.11 0.16 0.05 0.08 0.02 0.04 0.09 0.13 0.20 0.23 0.14 0.05 0.02 0.01 0.05 0.12 0.18 0.20
0.00 0.00 0.00 0.00 0.00 0.00 0.00 0.01 0.03 0.04 0.04 0.03 0.04 0.08 0.14 0.15 0.17 0.13 0.04 0.03 0.05 0.06 0.08 0.07 0.04 0.02 0.03 0.03 0.06 0.13 0.16 0.13
0.00 0.00 0.00 0.00 0.00 0.00 0.00 0.00 0.00 0.02 0.07 0.10 0.11 0.14 0.17 0.20 0.25 0.18 0.05 0.07 0.10 0.07 0.06 0.05 0.04 0.01 0.01 0.01 0.07 0.08 0.10 0.07
0.00 0.00 0.00 0.00 0.00 0.00 0.00 0.00 0.00 0.00 0.02 0.07 0.12 0.16 0.21 0.23 0.22 0.20 0.10 0.09 0.07 0.05 0.05 0.03 0.02 0.02 0.02 0.02 0.01 0.02 0.03 0.02
0.00 0.00 0.00 0.00 0.00 0.00 0.00 0.00 0.00 0.00 0.00 0.01 0.03 0.06 0.12 0.26 0.35 0.33 0.29 0.28 0.23 0.14 0.08 0.04 0.01 0.02 0.02 0.00 0.00 0.00 0.01 0.07
0.00 0.00 0.00 0.00 0.00 0.00 0.00 0.00 0.00 0.00 0.00 0.00 0.00 0.02 0.05 0.14 0.27 0.43 0.68 0.84 0.82 0.75 0.52 0.48 0.31 0.13 0.10 0.03 0.02 0.00 0.00 0.01
0.00 0.00 0.00 0.00 0.00 0.00 0.00 0.00 0.00 0.00 0.00 0.00 0.00 0.00 0.00 0.00 0.01 0.02 0.10 0.34 0.44 0.73 0.93 0.99 0.83 0.54 0.46 0.23 0.08 0.01 0.00 0.00
0.00 0.00 0.00 0.00 0.00 0.00 0.00 0.00 0.00 0.00 0.00 0.00 0.00 0.00 0.00 0.00 0.00 0.00 0.02 0.09 0.21 0.41 0.59 0.66 0.70 0.47 0.31 0.30 0.13 0.03 0.01 0.00
0.00 0.00 0.00 0.00 0.00 0.00 0.00 0.00 0.00 0.00 0.00 0.00 0.00 0.00 0.00 0.00 0.00 0.00 0.00 0.01 0.03 0.13 0.26 0.37 0.59 0.67 0.61 0.51 0.34 0.17 0.05 0.00
MSLP
1007.64 1008.69 1009.61 1010.23 1010.41 1010.65 1010.95 1011.28 1011.56 1011.97 1012.37 1012.79 1013.09 1013.48 1013.80 1014.21 1014.48 1014.68 1014.89 1015.41 1015.72 1015.95 1016.21 1016.40 1016.63 1016.81 1017.01 1017.19 1017.31 1017.23 1016.74 1016.15
1007.80 1008.29 1008.97 1009.49 1010.06 1010.82 1011.11 1011.44 1011.81 1012.19 1012.45 1012.73 1012.87 1013.30 1013.75 1014.04 1014.25 1014.53 1014.86 1015.13 1015.58 1016.12 1016.35 1016.57 1016.63 1016.94 1017.16 1017.45 1017.32 1017.39 1016.75 1016.62
1007.69 1008.07 1008.56 1009.10 1009.48 1009.97 1011.01 1011.46 1011.72 1012.04 1012.46 1012.84 1013.15 1013.14 1013.50 1013.73 1013.88 1014.20 1014.94 1015.31 1015.62 1015.87 1016.39 1016.66 1016.87 1017.18 1017.44 1017.57 1017.69 1017.08 1016.07 1016.28
1007.09 1007.76 1008.06 1008.65 1008.99 1009.28 1009.83 1010.24 1010.89 1011.28 1011.52 1011.91 1012.34 1012.13 1012.23 1012.73 1013.24 1014.13 1014.69 1015.15 1015.72 1016.04 1016.25 1016.82 1016.97 1017.03 1017.54 1017.67 1017.49 1016.53 1016.60 1016.38
1006.21 1007.09 1007.78 1008.06 1008.79 1008.91 1009.42 1009.56 1009.56 1010.05 1010.48 1010.80 1011.35 1011.39 1011.65 1012.12 1012.63 1013.77 1014.45 1015.21 1015.39 1016.14 1016.22 1016.36 1016.47 1016.34 1016.90 1017.03 1016.73 1016.46 1016.97 1016.11
1005.35 1006.38 1007.31 1008.07 1007.73 1008.70 1009.30 1009.51 1009.18 1009.09 1009.36 1009.92 1010.36 1010.78 1010.91 1011.32 1011.90 1012.53 1013.40 1013.95 1014.27 1014.92 1015.25 1015.44 1015.89 1016.06 1016.28 1016.61 1016.34 1016.42 1016.62 1015.70
1006.72 1006.62 1006.92 1007.65 1008.13 1008.16 1008.28 1009.16 1009.43 1009.12 1008.81 1008.83 1009.57 1009.92 1010.14 1010.61 1011.59 1012.23 1012.54 1013.04 1013.52 1013.97 1014.54 1014.64 1015.18 1015.57 1016.04 1016.34 1016.20 1016.59 1016.08 1015.56
1008.02 1007.95 1007.79 1007.28 1007.79 1008.14 1008.21 1008.11 1008.45 1009.01 1009.13 1008.96 1008.97 1009.21 1009.71 1010.15 1010.95 1011.69 1012.06 1012.31 1012.87 1013.43 1014.09 1014.49 1014.56 1015.44 1015.91 1016.07 1016.23 1016.15 1016.07 1015.80
1008.23 1007.99 1008.22 1007.90 1007.33 1008.12 1008.48 1008.50 1008.44 1008.93 1009.16 1009.40 1009.51 1009.19 1009.30 1009.70 1010.28 1010.85 1011.21 1012.12 1012.61 1013.30 1013.83 1014.31 1014.77 1015.31 1015.76 1015.74 1015.89 1016.21 1015.80 1016.53
1008.95 1008.89 1008.54 1008.19 1007.80 1008.18 1008.45 1008.64 1008.82 1008.77 1008.68 1008.73 1008.93 1009.21 1009.22 1009.71 1009.97 1010.55 1011.14 1011.72 1012.33 1013.35 1013.70 1014.61 1014.84 1015.45 1015.95 1016.25 1016.36 1016.23 1016.16 1016.31
1009.27 1009.33 1009.23 1008.97 1008.62 1008.41 1008.47 1008.52 1008.66 1008.67 1008.57 1008.50 1008.27 1008.32 1008.48 1009.20 1009.63 1010.21 1010.73 1011.43 1012.00 1012.57 1013.32 1013.78 1014.70 1015.33 1015.44 1015.81 1016.29 1016.61 1016.62 1016.83
1010.17 1010.00 1009.96 1009.71 1009.39 1009.07 1008.94 1009.06 1008.90 1008.46 1008.24 1008.01 1007.93 1007.87 1008.07 1008.31 1008.90 1009.48 1010.16 1010.91 1011.44 1011.97 1012.53 1013.08 1013.42 1014.41 1015.48 1015.98 1016.42 1016.76 1016.60 1016.88
1011.17 1011.07 1011.00 1010.55 1009.90 1009.76 1009.75 1009.89 1009.96 1009.72 1009.62 1008.56 1007.68 1007.63 1007.53 1007.80 1008.02 1008.76 1009.29 1009.88 1010.40 1011.09 1011.62 1012.19 1013.17 1013.92 1014.85 1016.20 1017.04 1016.91 1016.97 1016.73
1011.66 1011.48 1011.42 1011.24 1010.89 1010.42 1010.20 1010.22 1010.23 1010.06 1009.86 1009.67 1008.77 1008.19 1007.52 1007.70 1007.58 1008.02 1008.56 1009.10 1009.52 1010.00 1010.51 1011.35 1012.04 1012.54 1013.43 1015.25 1016.55 1017.15 1017.29 1016.83
1012.30 1012.10 1011.89 1011.49 1011.48 1010.94 1010.55 1010.19 1009.64 1009.73 1009.60 1009.50 1009.20 1008.69 1008.23 1007.74 1007.29 1007.40 1007.60 1008.05 1008.30 1008.48 1009.05 1009.73 1010.59 1011.69 1012.33 1012.72 1014.87 1015.45 1016.89 1017.53
1012.81 1012.61 1012.12 1011.72 1011.79 1011.51 1011.24 1010.73 1009.81 1009.41 1009.25 1009.01 1008.90 1008.89 1008.39 1008.04 1008.18 1007.27 1007.21 1007.45 1006.68 1006.92 1007.76 1008.48 1009.08 1009.87 1011.11 1011.51 1011.56 1012.56 1014.88 1017.03
1012.93 1012.90 1012.55 1012.40 1012.37 1012.06 1011.46 1011.05 1010.38 1009.43 1008.88 1008.91 1008.83 1008.39 1008.20 1008.13 1008.40 1007.20 1006.99 1008.55 1007.72 1007.62 1006.21 1007.82 1006.31 1008.53 1008.48 1010.43 1011.52 1012.10 1012.54 1013.92
1013.02 1012.73 1012.66 1012.27 1012.20 1011.95 1011.52 1010.90 1010.31 1009.72 1008.89 1008.32 1007.80 1007.83 1007.52 1007.38 1007.60 1007.90 1008.33 1008.16 1008.14 1007.67 1007.26 1008.25 1008.04 1008.00 1009.20 1008.51 1010.23 1010.57 1011.37 1012.36
1012.81 1012.96 1012.70 1012.38 1012.02 1011.88 1011.68 1011.29 1010.45 1009.73 1008.92 1008.12 1007.56 1007.13 1006.88 1006.94 1007.15 1007.23 1007.87 1008.13 1007.78 1007.44 1007.50 1008.27 1008.25 1008.86 1008.78 1009.00 1009.35 1009.53 1009.78 1010.87
1012.88 1012.80 1012.50 1012.28 1012.11 1011.81 1011.63 1011.11 1010.25 1009.27 1008.66 1007.97 1007.66 1007.31 1006.96 1006.67 1006.60 1006.39 1006.38 1006.75 1007.31 1007.48 1007.62 1008.12 1007.60 1008.43 1008.30 1008.53 1008.65 1008.50 1008.98 1010.04
Thickness
5786 5777 5770 5765 5762 5759 5756 5752 5749 5744 5739 5735 5732 5727 5723 5719 5716 5714 5711 5706 5703 5700 5698 5695 5692 5690 5689 5687 5684 5682 5685 5690
5781 5776 5771 5766 5760 5754 5751 5747 5743 5739 5735 5732 5730 5725 5720 5718 5715 5712 5707 5706 5701 5695 5692 5689 5688 5685 5683 5679 5678 5677 5680 5682
5777 5774 5768 5764 5760 5756 5747 5743 5739 5736 5730 5727 5722 5720 5717 5714 5712 5709 5701 5698 5695 5692 5686 5683 5681 5678 5675 5673 5669 5670 5681 5676
5778 5772 5769 5762 5758 5755 5751 5747 5741 5736 5732 5728 5723 5725 5724 5718 5713 5705 5697 5693 5689 5684 5682 5676 5674 5672 5667 5666 5663 5667 5670 5669
5780 5773 5767 5764 5756 5753 5749 5746 5746 5741 5737 5732 5727 5725 5721 5716 5710 5699 5691 5685 5684 5677 5674 5672 5668 5669 5663 5661 5662 5663 5659 5663
5779 5773 5765 5757 5759 5752 5744 5742 5742 5741 5738 5733 5728 5724 5720 5715 5710 5704 5692 5687 5684 5680 5676 5672 5667 5664 5661 5656 5657 5658 5654 5658
5761 5765 5761 5755 5750 5750 5750 5741 5737 5736 5737 5737 5730 5726 5721 5714 5704 5698 5693 5686 5682 5678 5674 5672 5665 5660 5655 5651 5651 5649 5652 5654
5746 5746 5748 5753 5747 5743 5741 5742 5737 5730 5730 5729 5728 5724 5718 5712 5702 5694 5690 5684 5679 5672 5667 5664 5664 5654 5649 5645 5642 5645 5646 5647
5736 5739 5737 5738 5743 5734 5729 5727 5725 5721 5718 5715 5712 5712 5710 5706 5699 5694 5690 5679 5672 5665 5659 5655 5653 5648 5641 5642 5638 5636 5641 5637
5723 5724 5725 5727 5728 5725 5718 5716 5713 5713 5713 5710 5707 5703 5702 5696 5690 5686 5680 5674 5667 5656 5650 5643 5643 5638 5626 5622 5628 5627 5629 5627
5710 5710 5709 5709 5710 5712 5710 5707 5704 5702 5700 5700 5699 5696 5695 5687 5681 5675 5672 5665 5660 5655 5645 5641 5634 5629 5618 5626 5622 5619 5619 5615
5694 5694 5692 5692 5693 5694 5693 5689 5690 5691 5693 5692 5690 5688 5683 5680 5673 5667 5665 5658 5653 5649 5643 5635 5634 5628 5619 5613 5612 5610 5612 5609
5671 5670 5669 5671 5674 5671 5668 5664 5662 5662 5663 5672 5677 5676 5675 5672 5666 5657 5657 5654 5651 5644 5639 5631 5623 5619 5611 5599 5594 5598 5598 5602
5656 5655 5652 5649 5650 5651 5651 5648 5646 5645 5645 5647 5653 5656 5659 5659 5656 5648 5649 5646 5643 5637 5634 5625 5618 5616 5610 5596 5585 5583 5582 5589
5637 5636 5634 5633 5630 5631 5631 5631 5633 5630 5629 5628 5631 5634 5636 5644 5646 5641 5640 5639 5635 5634 5627 5622 5615 5608 5603 5600 5579 5590 5576 5571
5617 5615 5613 5611 5606 5604 5602 5603 5609 5612 5612 5614 5615 5615 5620 5622 5624 5619 5623 5629 5627 5616 5619 5616 5612 5607 5596 5595 5601 5598 5583 5563
5598 5593 5591 5586 5582 5579 5579 5577 5580 5587 5592 5593 5595 5600 5603 5605 5609 5607 5613 5603 5612 5600 5611 5612 5602 5600 5596 5587 5580 5580 5585 5583
5579 5573 5564 5562 5555 5549 5546 5549 5553 5557 5565 5571 5580 5584 5589 5592 5589 5585 5582 5585 5588 5596 5600 5595 5593 5593 5590 5592 5582 5577 5578 5575
5558 5549 5543 5534 5532 5528 5525 5525 5529 5533 5540 5545 5550 5556 5563 5567 5567 5569 5565 5564 5569 5575 5580 5575 5579 5574 5580 5579 5576 5577 5579 5573
5537 5527 5517 5510 5504 5504 5501 5500 5503 5507 5510 5514 5519 5523 5527 5536 5541 5548 5553 5553 5550 5553 5560 5559 5569 5560 5567 5568 5572 5568 5569 5565